SL-12 DEB, 41806

Orbit data source: Space-Track

SL-12 DEB, 41806 is space debris in HEO originally from a launch on Mon, 25 Dec 2006 UTC launched from the Tyuratam Missile And Space Complex (TTMTR). Debris objects in space refer to the collection of defunct objects orbiting the Earth. Examples of debris include non-operational satellites, rocket bodies, and fragments generated from explosions, collisions, or faulty payload assembly.

Loading next visibility...
Identifier
41806, 2006-062L
Orbit
HEO
Country
Flag of CISCIS
Related business
Manufacturer
RKKE
Mission
Spacecraft
Bus & Motor
Unknown
Mass
Unknown
Launch date (UTC)
2006-12-25 (19 years ago)
Launch vehicle
Unknown
Launch site
Tyuratam Missile And Space Complex (TTMTR)
Object type
Payload
Rocket body
Debris
Shape & HBR
Unknown shape, 0.2 m
Radar Cross Section
Medium (>0.1 m² and <1 m²)

Expand to show TLE details & history
Last TLE update: 3 days ago

TLE from 3 days ago
0 SL-12 DEB
1 41806U 06062L   26170.62949077 -.00000066  00000-0 -51203-3 0  9991
2 41806  64.5937  31.5028 5644557 315.6071  11.0141  4.14252943149199
Epoch: 2026-06-19T15:06Z
TLE epoch observation values (Epoch: 2026-06-19T15:06:28.002Z)
Latitude
0.00009°
Longitude
-102.95486°
Altitude
1,586.306 km
Speed
8.705 km/s
True Right ascension
02h 06m 04s
True Declination
0° 00' 00"
Sunlit
Object was in daylight at epoch
Visualization orbit readout
Latitude
Unknown
Longitude
Unknown
Altitude
Unknown
Speed
Unknown
Apparent Right ascension
Unknown
Apparent Declination
Unknown
Sunlit
N/A
Visualization observer readout
Local Sidereal Time
21:35:19
Azimuth
Unknown
Elevation
Unknown
Doppler factor
Unknown
Orbital elements
Apogee altitude
19,240.73 km
Perigee altitude
754.153 km
Semi-major axis
16,375.578 km
Eccentricity
0.56446
Inclination
64.5937°
RAAN
31.5028°
Arg. of periapsis
315.6071°
True anomaly
44.47442°
Mean anomaly
11.0141°
Eccentric anomaly
24.34706°
Mean motion
1.03573 °/min
Orbital period
347.58 mins
BSTAR
-0.00051203
Loading maneuver chart data...
Computing Atmospheric mass density...
Loading historical data...
Loading historical data...
Loading historical data...
Loading historical data...
Loading historical data...
Loading historical data...
Loading historical data...

Documentation

Showing up to 5 results
|